Weather History for K1M4 - July, 2013

Change the Weather History Date:

Wednesday, July 17, 2013

  Actual Average (KJFX) Record (KJFX)
Temperature  
Mean Temperature 79 °F -  
Max Temperature 92 °F 90 °F 108 °F (1980)
Min Temperature 66 °F 67 °F 57 °F (2014)
Cooling Degree Days 14    
Growing Degree Days 29 (Base 50)    
Moisture  
Dew Point 72 °F    
Average Humidity 81    
Maximum Humidity 100    
Minimum Humidity 50    
Precipitation  
Precipitation 0.00 in - - ()
Sea Level Pressure  
Sea Level Pressure 30.31 in    
Wind  
Wind Speed 0 mph (North)    
Max Wind Speed 6 mph    
Max Gust Speed -    
Visibility 8 miles    
Events      
Averages and records for this station are not official NWS values.
T = Trace of Precipitation, MM = Missing Value Source: NWS Daily Summary

Daily Weather History Graph

Daily Weather History Graph

Search for Another Location

Airport or City:

Trip Planner

Search our weather history database for the weather conditions in past years. The results will help you decide how hot, cold, wet, or windy it might be!

Date:

Astronomy

Jul. 17, 2013 Rise Set
Actual Time 5:51 AM CDT 8:01 PM CDT
Civil Twilight 5:22 AM CDT 8:30 PM CDT
Nautical Twilight 4:47 AM CDT 9:05 PM CDT
Astronomical Twilight 4:10 AM CDT 9:42 PM CDT
Moon 2:53 PM CDT (7/17) 12:52 AM CDT (7/17)
Length of Visible Light 15h 07m
Length of Day
14h 10m
Waxing Gibbous, 67% of the Moon is Illuminated
Jul 17
Waxing Gibbous
Jul 22
Full
Jul 29
Last Quarter
Aug 6
New
Aug 14
First Quarter

Hourly Weather History & Observations

Time (CDT) Temp. Heat Index Dew Point Humidity Pressure Visibility Wind Dir Wind Speed Gust Speed Precip Events Conditions
12:56 AM 70.9 °F - 70.9 °F 100% 30.34 in 7.0 mi Calm Calm - N/A   Clear
1:56 AM 68.9 °F - 68.9 °F 100% 30.33 in 4.0 mi Calm Calm - N/A   Clear
2:11 AM 69.8 °F - 69.8 °F 100% 30.31 in 1.8 mi Calm Calm - N/A   Clear
2:22 AM 69.8 °F - 69.8 °F 100% 30.31 in 5.0 mi Calm Calm - N/A   Clear
2:56 AM 68.9 °F - 68.9 °F 100% 30.33 in 4.0 mi Calm Calm - N/A   Clear
3:56 AM 68.0 °F - 68.0 °F 100% 30.33 in 5.0 mi Calm Calm - N/A   Clear
4:56 AM 68.0 °F - 68.0 °F 100% 30.34 in 6.0 mi Calm Calm - N/A   Clear
5:56 AM 66.9 °F - 66.9 °F 100% 30.36 in 5.0 mi Calm Calm - N/A   Clear
6:56 AM 68.9 °F - 68.9 °F 100% 30.37 in 9.0 mi Calm Calm - N/A   Clear
7:56 AM 79.0 °F - 72.9 °F 81% 30.38 in 10.0 mi Calm Calm - N/A   Clear
8:56 AM 82.9 °F 88.5 °F 72.9 °F 71% 30.38 in 10.0 mi Calm Calm - N/A   Clear
9:56 AM 86.0 °F 92.2 °F 72.0 °F 63% 30.38 in 10.0 mi Calm Calm - N/A   Mostly Cloudy
10:56 AM 88.0 °F 95.6 °F 72.9 °F 61% 30.37 in 10.0 mi Variable 4.6 mph - N/A   Mostly Cloudy
11:56 AM 88.0 °F 96.5 °F 73.9 °F 63% 30.36 in 10.0 mi North 5.8 mph - N/A   Scattered Clouds
12:56 PM 90.9 °F 100.0 °F 73.9 °F 57% 30.35 in 10.0 mi Variable 4.6 mph - N/A   Scattered Clouds
1:56 PM 90.9 °F 98.3 °F 72.0 °F 54% 30.33 in 10.0 mi Calm Calm - N/A   Partly Cloudy
2:56 PM 91.9 °F 98.4 °F 70.9 °F 50% 30.30 in 10.0 mi Calm Calm - N/A   Scattered Clouds
3:56 PM 92.8 °F 100.3 °F 72.0 °F 50% 30.27 in 10.0 mi Calm Calm - N/A   Partly Cloudy
4:56 PM 91.9 °F 99.5 °F 72.0 °F 52% 30.26 in 10.0 mi Calm Calm - N/A   Clear
5:56 PM 88.9 °F 98.6 °F 74.8 °F 63% 30.25 in 10.0 mi Calm Calm - N/A   Clear
6:56 PM 82.9 °F 90.8 °F 75.9 °F 79% 30.26 in 10.0 mi Calm Calm - N/A   Clear
7:56 PM 79.9 °F - 77.0 °F 91% 30.25 in 10.0 mi Calm Calm - N/A   Clear
8:56 PM 79.0 °F - 75.9 °F 90% 30.25 in 10.0 mi Calm Calm - N/A   Clear
9:56 PM 77.9 °F - 75.9 °F 94% 30.26 in 10.0 mi Calm Calm - N/A   Clear
10:56 PM 77.0 °F - 75.9 °F 96% 30.26 in 10.0 mi Calm Calm - N/A   Clear
11:56 PM 75.9 °F - 74.8 °F 96% 30.26 in 10.0 mi Calm Calm - N/A   Scattered Clouds